Location: Choisy
(48.7685°N, 2.4187°E)
Time: 03:47:14
(UTC+00:00)

Cosmos 2219 Rocket - Pass Details

Date: 24 October 2021
Orbit: 827 x 848 km, 71.0° (Epoch: 28 November)

Event Time Altitude Azimuth Distance (km) Brightness Sun altitude
Rises 19:53:37 0° 210° (SSW) 3,355 5.4 -31.6°
Reaches altitude 10° 19:56:02 10° 212° (SSW) 2,427 4.7 -32.0°
Enters shadow 19:57:17 17° 213° (SSW) 1,966 4.2 -32.2°
